GW0353 Weather Reports


Display with metric or nautical units.
time (UTC)temp
F
wind
direction
speed
MPH
gust
MPH
rain 1hr
in
rain 24hr
in
rain mn
in
humidity
%
barometer
mb
20260509202600 75 154 3.0 7.0 0.00 0.00 0.00 21 1023.7
20260509202057 75 174 0.0 6.0 0.00 0.00 0.00 22 1023.8
20260509201559 73 234 0.0 12.0 0.00 0.00 0.00 21 1023.8
20260509201056 73 92 2.0 12.0 0.00 0.00 0.00 23 1024.0
20260509200558 74 100 4.0 12.0 0.00 0.00 0.00 21 1024.0
20260509195558 73 63 1.0 8.0 0.00 0.00 0.00 23 1024.2
20260509195057 73 0 2.0 8.0 0.00 0.00 0.00 23 1024.4
20260509194559 73 125 6.0 12.0 0.00 0.00 0.00 22 1024.4
20260509194057 73 225 4.0 12.0 0.00 0.00 0.00 23 1024.5
20260509193559 74 309 3.0 6.0 0.00 0.00 0.00 23 1024.6
20260509193100 74 83 2.0 6.0 0.00 0.00 0.00 23 1024.6
20260509192557 74 63 2.0 6.0 0.00 0.00 0.00 24 1024.6
20260509192059 75 296 2.0 6.0 0.00 0.00 0.00 22 1024.6
20260509191557 75 281 2.0 6.0 0.00 0.00 0.00 23 1024.6
20260509191101 74 297 0.0 5.0 0.00 0.00 0.00 24 1024.6
20260509190649 73 271 2.0 5.0 0.00 0.00 0.00 24 1024.7
20260509190058 73 257 1.0 8.0 0.00 0.00 0.00 24 1024.7
20260509185558 72 32 2.0 8.0 0.00 0.00 0.00 25 1024.7
20260509185057 72 49 0.0 5.0 0.00 0.00 0.00 25 1024.8
20260509184602 73 113 1.0 6.0 0.00 0.00 0.00 24 1024.9
20260509184057 73 308 2.0 6.0 0.00 0.00 0.00 25 1025.1
20260509183601 74 265 1.0 6.0 0.00 0.00 0.00 25 1025.2
20260509183139 73 323 1.0 6.0 0.00 0.00 0.00 25 1025.1
20260509182557 74 229 1.0 3.0 0.00 0.00 0.00 25 1025.1
20260509182058 73 266 1.0 3.0 0.00 0.00 0.00 25 1025.2
20260509181616 72 65 1.0 3.0 0.00 0.00 0.00 25 1025.2
20260509181057 71 30 1.0 5.0 0.00 0.00 0.00 24 1025.4
20260509180557 70 316 2.0 5.0 0.00 0.00 0.00 24 1025.3
20260509180104 70 294 1.0 5.0 0.00 0.00 0.00 25 1025.3
20260509175557 70 307 1.0 5.0 0.00 0.00 0.00 25 1025.3
20260509175059 70 29 2.0 5.0 0.00 0.00 0.00 25 1025.3
20260509174559 69 273 1.0 7.0 0.00 0.00 0.00 26 1025.3
20260509174058 68 15 4.0 8.0 0.00 0.00 0.00 28 1025.1
20260509173601 67 47 4.0 8.0 0.00 0.00 0.00 28 1025.3
20260509173106 67 63 3.0 8.0 0.00 0.00 0.00 28 1025.1
20260509172558 68 49 2.0 7.0 0.00 0.00 0.00 30 1025.2
20260509172100 68 30 3.0 5.0 0.00 0.00 0.00 30 1025.1
20260509171601 68 53 1.0 3.0 0.00 0.00 0.00 29 1025.1
20260509171058 67 0 1.0 6.0 0.00 0.00 0.00 33 1025.1
20260509170557 67 304 3.0 6.0 0.00 0.00 0.00 33 1025.1
20260509170101 67 41 1.0 4.0 0.00 0.00 0.00 36 1025.1
20260509165558 66 41 2.0 4.0 0.00 0.00 0.00 34 1025.2
20260509165057 66 39 1.0 3.0 0.00 0.00 0.00 35 1025.2
20260509164608 66 314 0.0 3.0 0.00 0.00 0.00 34 1025.2
20260509164057 65 0 1.0 3.0 0.00 0.00 0.00 34 1025.4
20260509163558 65 309 1.0 3.0 0.00 0.00 0.00 35 1025.4
20260509163108 64 0 0.0 4.0 0.00 0.00 0.00 37 1025.6
20260509162557 62 0 0.0 4.0 0.00 0.00 0.00 38 1025.6
20260509162056 61 49 0.0 4.0 0.00 0.00 0.00 40 1025.5
20260509161605 61 74 1.0 4.0 0.00 0.00 0.00 39 1025.5
20260509161057 61 0 1.0 4.0 0.00 0.00 0.00 39 1025.6
20260509160558 60 52 2.0 4.0 0.00 0.00 0.00 40 1025.6
20260509160100 60 46 2.0 4.0 0.00 0.00 0.00 40 1025.5
20260509155559 60 64 0.0 4.0 0.00 0.00 0.00 39 1025.5
20260509155058 59 0 1.0 4.0 0.00 0.00 0.00 40 1025.5
20260509154606 58 75 1.0 4.0 0.00 0.00 0.00 40 1025.7
20260509154058 57 27 2.0 4.0 0.00 0.00 0.00 43 1025.6
20260509153557 57 62 2.0 4.0 0.00 0.00 0.00 44 1025.6
20260509153059 57 0 0.0 3.0 0.00 0.00 0.00 44 1025.5
20260509152557 56 49 0.0 3.0 0.00 0.00 0.00 47 1025.7
20260509152057 55 56 0.0 3.0 0.00 0.00 0.00 48 1025.7
20260509151559 54 51 1.0 2.0 0.00 0.00 0.00 49 1025.7
20260509151058 54 68 1.0 3.0 0.00 0.00 0.00 50 1025.7
20260509150558 53 60 2.0 3.0 0.00 0.00 0.00 49 1025.8
20260509150058 53 63 0.0 3.0 0.00 0.00 0.00 51 1025.9
20260509145558 53 298 0.0 3.0 0.00 0.00 0.00 50 1025.8
20260509145059 52 38 0.0 2.0 0.00 0.00 0.00 53 1025.7
20260509144558 51 0 0.0 2.0 0.00 0.00 0.00 56 1025.7
20260509144057 49 56 0.0 1.0 0.00 0.00 0.00 56 1025.7
20260509143558 48 67 0.0 1.0 0.00 0.00 0.00 60 1025.9
20260509143103 48 0 0.0 1.0 0.00 0.00 0.00 61 1026.0
20260509142557 48 0 0.0 1.0 0.00 0.00 0.00 64 1026.0
20260509142058 47 122 0.0 1.0 0.00 0.00 0.00 63 1026.0
20260509141609 47 165 0.0 0.0 0.00 0.00 0.00 63 1026.0
20260509141059 46 0 0.0 0.0 0.00 0.00 0.00 60 1026.0
20260509140558 45 0 0.0 0.0 0.00 0.00 0.00 62 1026.0
20260509140107 44 0 0.0 0.0 0.00 0.00 0.00 63 1026.0
20260509135559 43 0 0.0 1.0 0.00 0.00 0.00 62 1026.0
20260509135057 41 0 0.0 1.0 0.00 0.00 0.00 68 1026.0
20260509134603 39 0 0.0 1.0 0.00 0.00 0.00 71 1026.0
20260509134102 37 0 0.0 1.0 0.00 0.00 0.00 69 1026.0
20260509133558 37 0 0.0 1.0 0.00 0.00 0.00 71 1025.9
20260509133105 37 0 0.0 1.0 0.00 0.00 0.00 73 1025.8
20260509132558 37 196 0.0 0.0 0.00 0.00 0.00 73 1025.6
20260509132102 37 205 0.0 1.0 0.00 0.00 0.00 70 1025.5
20260509131557 37 0 0.0 1.0 0.00 0.00 0.00 70 1025.3
20260509131057 37 0 0.0 0.0 0.00 0.00 0.00 70 1025.2
20260509130557 37 0 0.0 0.0 0.00 0.00 0.00 70 1025.2
20260509130104 37 0 0.0 0.0 0.00 0.00 0.00 69 1025.1
20260509125558 37 0 0.0 0.0 0.00 0.00 0.00 68 1025.1
20260509125057 37 0 0.0 0.0 0.00 0.00 0.00 68 1025.0
20260509124607 37 0 0.0 0.0 0.00 0.00 0.00 68 1025.0
20260509124057 37 0 0.0 0.0 0.00 0.00 0.00 69 1025.0
20260509123557 37 0 0.0 1.0 0.00 0.00 0.00 69 1025.1
20260509123100 38 0 0.0 2.0 0.00 0.00 0.00 68 1025.0
20260509122557 38 0 0.0 2.0 0.00 0.00 0.00 66 1024.9
20260509122058 38 213 0.0 1.0 0.00 0.00 0.00 66 1024.9
20260509121602 39 0 0.0 0.0 0.00 0.00 0.00 66 1024.9
20260509121102 38 0 0.0 2.0 0.00 0.00 0.00 67 1024.8
20260509120558 38 0 0.0 2.0 0.00 0.00 0.00 66 1024.9
20260509120059 38 176 0.0 2.0 0.00 0.00 0.00 65 1024.9
20260509115557 39 141 1.0 2.0 0.00 0.00 0.00 64 1024.8
20260509115057 39 0 0.0 0.0 0.00 0.00 0.00 65 1024.9
20260509114604 39 0 0.0 1.0 0.00 0.00 0.00 63 1024.9
20260509114059 40 0 0.0 1.0 0.00 0.00 0.00 62 1024.9
20260509113558 40 0 0.0 1.0 0.00 0.00 0.00 62 1024.8
20260509113058 40 0 0.0 0.0 0.00 0.00 0.00 62 1024.8
20260509112559 40 0 0.0 1.0 0.00 0.00 0.00 61 1024.7
20260509112057 41 0 0.0 1.0 0.00 0.00 0.00 60 1024.6
20260509111559 41 0 0.0 1.0 0.00 0.00 0.00 60 1024.7
20260509111057 41 0 0.0 0.0 0.00 0.00 0.00 60 1024.7
20260509110557 41 0 0.0 0.0 0.00 0.00 0.00 61 1024.6
20260509110057 41 0 0.0 2.0 0.00 0.00 0.00 62 1024.6
20260509105558 41 0 0.0 2.0 0.00 0.00 0.00 62 1024.6
20260509105059 40 0 0.0 0.0 0.00 0.00 0.00 62 1024.6
20260509104558 41 0 0.0 1.0 0.00 0.00 0.00 61 1024.6
20260509104058 42 0 0.0 1.0 0.00 0.00 0.00 61 1024.5
20260509103558 42 0 0.0 1.0 0.00 0.00 0.00 61 1024.4
20260509103102 42 0 0.0 0.0 0.00 0.00 0.00 61 1024.4
20260509102559 42 0 0.0 1.0 0.00 0.00 0.00 61 1024.5
20260509102058 42 0 0.0 1.0 0.00 0.00 0.00 60 1024.6
20260509101559 42 186 0.0 1.0 0.00 0.00 0.00 60 1024.8
20260509101057 42 0 0.0 2.0 0.00 0.00 0.00 59 1024.7
20260509100557 43 0 0.0 2.0 0.00 0.00 0.00 58 1024.6
20260509095600 44 0 0.0 3.0 0.00 0.00 0.00 58 1024.4
20260509095057 44 169 1.0 3.0 0.00 0.00 0.00 58 1024.4
20260509094559 44 0 0.0 2.0 0.00 0.00 0.00 59 1024.5
20260509094059 44 0 0.0 2.0 0.00 0.00 0.00 60 1024.6
20260509093557 44 181 0.0 2.0 0.00 0.00 0.00 59 1024.7
20260509093100 44 0 0.0 2.0 0.00 0.00 0.00 59 1024.7
20260509092559 44 0 0.0 2.0 0.00 0.00 0.00 59 1024.7
20260509092102 45 0 0.0 2.0 0.00 0.00 0.00 59 1024.8
20260509091557 44 0 0.0 3.0 0.00 0.00 0.00 60 1024.8
20260509091059 44 0 0.0 3.0 0.00 0.00 0.00 59 1024.7
20260509090558 44 176 0.0 2.0 0.00 0.00 0.00 60 1024.7
20260509090056 44 0 0.0 2.0 0.00 0.00 0.00 59 1024.7
20260509085559 45 235 0.0 2.0 0.00 0.00 0.00 61 1024.7
20260509085058 45 0 0.0 2.0 0.00 0.00 0.00 62 1024.6
20260509084600 44 179 1.0 2.0 0.00 0.00 0.00 62 1024.7
20260509084058 44 0 0.0 1.0 0.00 0.00 0.00 62 1024.7
20260509083557 45 248 0.0 2.0 0.00 0.00 0.00 61 1024.7
20260509083105 45 0 0.0 2.0 0.00 0.00 0.00 61 1024.6
20260509082557 46 203 1.0 2.0 0.00 0.00 0.00 59 1024.6
20260509082057 46 168 0.0 2.0 0.00 0.00 0.00 59 1024.8
20260509081555 46 0 0.0 2.0 0.00 0.00 0.00 58 1024.7
20260509081057 46 0 0.0 3.0 0.00 0.00 0.00 60 1024.9
20260509080559 46 173 0.0 3.0 0.00 0.00 0.00 57 1024.9
20260509080100 46 169 0.0 2.0 0.00 0.00 0.00 58 1025.1
20260509075601 46 0 0.0 2.0 0.00 0.00 0.00 58 1025.1
20260509075058 46 188 0.0 2.0 0.00 0.00 0.00 59 1025.1
20260509074559 46 0 0.0 2.0 0.00 0.00 0.00 57 1025.1
20260509074057 46 224 0.0 2.0 0.00 0.00 0.00 60 1025.1
20260509073558 47 0 0.0 2.0 0.00 0.00 0.00 55 1024.8
20260509073059 47 172 0.0 2.0 0.00 0.00 0.00 61 1024.6
20260509072600 47 0 0.0 1.0 0.00 0.00 0.00 54 1024.7
20260509072059 47 0 0.0 1.0 0.00 0.00 0.00 54 1024.7
20260509071558 47 0 0.0 1.0 0.00 0.00 0.00 53 1024.6
20260509071058 47 0 0.0 1.0 0.00 0.00 0.00 54 1024.6
20260509070559 47 0 0.0 1.0 0.00 0.00 0.00 54 1024.5
20260509070057 48 0 0.0 1.0 0.00 0.00 0.00 56 1024.5
20260509065558 48 0 0.0 1.0 0.00 0.00 0.00 52 1024.5
20260509065058 48 0 0.0 1.0 0.00 0.00 0.00 51 1024.4
20260509064617 49 0 0.0 1.0 0.00 0.00 0.00 51 1024.4
20260509064058 49 0 0.0 0.0 0.00 0.00 0.00 52 1024.5
20260509063558 49 0 0.0 0.0 0.00 0.00 0.00 54 1024.6
20260509063059 49 0 0.0 0.0 0.00 0.00 0.00 54 1024.6
20260509062558 49 0 0.0 1.0 0.00 0.00 0.00 52 1024.6
20260509062101 49 0 0.0 2.0 0.00 0.00 0.00 52 1024.8
20260509061558 49 235 0.0 2.0 0.00 0.00 0.00 55 1024.7
20260509061057 49 179 1.0 3.0 0.00 0.00 0.00 57 1024.6
20260509060557 49 0 0.0 3.0 0.00 0.00 0.00 58 1024.8
20260509060108 49 177 1.0 3.0 0.00 0.00 0.00 58 1024.8
20260509055600 49 233 0.0 2.0 0.00 0.00 0.00 60 1024.8
20260509055101 49 0 0.0 2.0 0.00 0.00 0.00 61 1024.9
20260509054603 49 176 0.0 2.0 0.00 0.00 0.00 62 1024.7
20260509054101 51 167 0.0 2.0 0.00 0.00 0.00 61 1024.7
20260509053558 51 207 0.0 5.0 0.00 0.00 0.00 64 1024.9
20260509053108 51 0 0.0 5.0 0.00 0.00 0.00 61 1024.9
20260509052557 52 210 0.0 5.0 0.00 0.00 0.00 60 1024.7
20260509052058 51 0 1.0 2.0 0.00 0.00 0.00 64 1024.7
20260509051603 52 0 0.0 2.0 0.00 0.00 0.00 62 1024.7
20260509051058 52 166 0.0 1.0 0.00 0.00 0.00 63 1024.7
20260509050600 53 70 0.0 1.0 0.00 0.00 0.00 61 1024.5
20260509050105 53 0 0.0 1.0 0.00 0.00 0.00 63 1024.7
20260509045557 53 0 0.0 0.0 0.00 0.00 0.00 60 1024.7
20260509045057 54 0 0.0 0.0 0.00 0.00 0.00 61 1024.5
20260509044559 54 0 0.0 1.0 0.00 0.00 0.00 58 1024.7
20260509044058 55 0 0.0 1.0 0.00 0.00 0.00 55 1024.5
20260509043557 55 0 0.0 2.0 0.00 0.00 0.00 55 1024.6
20260509043101 56 0 0.0 2.0 0.00 0.00 0.00 55 1024.6
20260509042558 55 46 0.0 2.0 0.00 0.00 0.00 55 1024.4
20260509042058 56 0 0.0 1.0 0.00 0.00 0.00 53 1024.3
20260509041556 56 0 0.0 1.0 0.00 0.00 0.00 55 1024.3
20260509041058 57 199 0.0 1.0 0.00 0.00 0.00 51 1024.3
20260509040557 57 0 0.0 2.0 0.00 0.00 0.00 53 1024.3
20260509040100 57 0 0.0 2.0 0.00 0.00 0.00 51 1024.2
20260509035600 57 237 1.0 2.0 0.00 0.00 0.00 53 1024.3
20260509035100 58 0 0.0 2.0 0.00 0.00 0.00 56 1024.0
20260509034558 58 0 0.0 2.0 0.00 0.00 0.00 52 1023.9
20260509034057 58 82 0.0 2.0 0.00 0.00 0.00 53 1024.0
20260509033600 58 169 0.0 6.0 0.00 0.00 0.00 51 1023.8
20260509033109 59 0 0.0 7.0 0.00 0.00 0.00 51 1023.7
20260509032558 59 60 4.0 8.0 0.00 0.00 0.00 51 1023.6
20260509032058 59 69 6.0 8.0 0.00 0.00 0.00 53 1023.5
20260509031605 59 83 0.0 4.0 0.00 0.00 0.00 32 1023.3
20260509031058 60 0 1.0 4.0 0.00 0.00 0.00 31 1023.1
20260509030558 61 161 0.0 2.0 0.00 0.00 0.00 30 1023.1
20260509030057 62 191 0.0 1.0 0.00 0.00 0.00 27 1023.2
20260509025557 63 0 0.0 3.0 0.00 0.00 0.00 26 1023.1
20260509025102 64 0 0.0 3.0 0.00 0.00 0.00 26 1023.0
20260509024555 64 314 0.0 3.0 0.00 0.00 0.00 28 1022.9
20260509024059 65 0 1.0 3.0 0.00 0.00 0.00 32 1022.9
20260509023558 65 311 0.0 4.0 0.00 0.00 0.00 32 1022.9
20260509023106 66 0 1.0 4.0 0.00 0.00 0.00 27 1022.9
20260509022558 66 7 0.0 4.0 0.00 0.00 0.00 28 1022.9
20260509022058 66 13 0.0 3.0 0.00 0.00 0.00 26 1022.9
20260509021559 67 336 0.0 2.0 0.00 0.00 0.00 27 1022.9
20260509021102 68 23 0.0 2.0 0.00 0.00 0.00 23 1022.7
20260509020557 68 20 0.0 4.0 0.00 0.00 0.00 22 1022.7
20260509020057 68 252 1.0 5.0 0.00 0.00 0.00 23 1022.7
20260509015558 69 0 0.0 5.0 0.00 0.00 0.00 23 1022.6
20260509015059 69 0 0.0 4.0 0.00 0.00 0.00 22 1022.6
20260509014555 70 55 0.0 7.0 0.00 0.00 0.00 22 1022.6
20260509014058 71 248 0.0 7.0 0.00 0.00 0.00 21 1022.5
20260509013558 72 200 0.0 2.0 0.00 0.00 0.00 20 1022.6
20260509013109 72 143 0.0 7.0 0.00 0.00 0.00 19 1022.4
20260509012558 73 77 1.0 7.0 0.00 0.00 0.00 19 1022.5
20260509012058 73 0 1.0 6.0 0.00 0.00 0.00 19 1022.5
20260509011559 73 309 2.0 7.0 0.00 0.00 0.00 18 1022.6
20260509011057 73 272 1.0 7.0 0.00 0.00 0.00 18 1022.5
20260509010601 73 265 1.0 6.0 0.00 0.00 0.00 18 1022.6
20260509010059 74 0 1.0 8.0 0.00 0.00 0.00 18 1022.6
20260509005559 74 330 1.0 8.0 0.00 0.00 0.00 19 1022.6
20260509005058 74 0 2.0 9.0 0.00 0.00 0.00 19 1022.6
20260509004628 74 295 1.0 10.0 0.00 0.00 0.00 19 1022.5
20260509004058 74 246 2.0 10.0 0.00 0.00 0.00 18 1022.6
20260509003558 75 111 0.0 9.0 0.00 0.00 0.00 19 1022.6
20260509003102 75 96 1.0 9.0 0.00 0.00 0.00 18 1022.6
20260509002558 75 349 1.0 6.0 0.00 0.00 0.00 18 1022.6
20260509002058 76 55 0.0 6.0 0.00 0.00 0.00 18 1022.6
20260509001601 76 113 0.0 6.0 0.00 0.00 0.00 18 1022.8
20260509001058 76 0 0.0 6.0 0.00 0.00 0.00 17 1022.7
20260509000602 76 62 1.0 6.0 0.00 0.00 0.00 18 1022.8
20260508235558 76 314 1.0 10.0 0.00 0.00 0.00 17 1022.7
20260508235058 76 137 1.0 10.0 0.00 0.00 0.00 16 1022.8
20260508234558 76 117 2.0 10.0 0.00 0.00 0.00 17 1022.9
20260508234059 76 117 3.0 10.0 0.00 0.00 0.00 15 1022.9
20260508233558 76 217 2.0 9.0 0.00 0.00 0.00 15 1023.0
20260508233134 76 130 2.0 9.0 0.00 0.00 0.00 15 1022.9
20260508232558 77 238 1.0 6.0 0.00 0.00 0.00 14 1023.0
20260508232058 77 98 1.0 5.0 0.00 0.00 0.00 16 1023.0
20260508231558 77 124 1.0 9.0 0.00 0.00 0.00 15 1023.0
20260508231058 77 30 1.0 9.0 0.00 0.00 0.00 13 1023.0
20260508230558 77 163 2.0 8.0 0.00 0.00 0.00 14 1022.9
20260508230101 77 4 2.0 11.0 0.00 0.00 0.00 13 1022.9
20260508225558 77 215 1.0 11.0 0.00 0.00 0.00 13 1023.0
20260508225058 77 101 1.0 11.0 0.00 0.00 0.00 14 1023.1
20260508224621 77 0 0.0 7.0 0.00 0.00 0.00 11 1023.1
20260508224058 78 44 1.0 7.0 0.00 0.00 0.00 10 1022.9
20260508223559 78 130 2.0 9.0 0.00 0.00 0.00 13 1023.0
20260508223110 78 284 1.0 9.0 0.00 0.00 0.00 11 1023.1
20260508222558 78 289 1.0 8.0 0.00 0.00 0.00 11 1023.1
20260508222059 78 0 1.0 6.0 0.00 0.00 0.00 11 1023.1
20260508221610 78 107 1.0 6.0 0.00 0.00 0.00 12 1023.1
20260508221058 78 32 1.0 6.0 0.00 0.00 0.00 12 1023.1
20260508220607 78 231 2.0 6.0 0.00 0.00 0.00 10 1023.1
20260508220059 78 68 2.0 7.0 0.00 0.00 0.00 12 1022.9
20260508215558 78 105 3.0 7.0 0.00 0.00 0.00 12 1023.1
20260508215058 78 182 3.0 7.0 0.00 0.00 0.00 11 1023.1
20260508214559 78 152 3.0 6.0 0.00 0.00 0.00 9 1023.1
20260508214058 78 117 1.0 5.0 0.00 0.00 0.00 10 1023.2
20260508213559 78 252 2.0 9.0 0.00 0.00 0.00 11 1023.4
20260508213057 78 210 0.0 9.0 0.00 0.00 0.00 9 1023.3
20260508212558 79 172 3.0 8.0 0.00 0.00 0.00 10 1023.2
20260508212057 79 254 1.0 5.0 0.00 0.00 0.00 12 1023.3
20260508211555 78 0 2.0 9.0 0.00 0.00 0.00 9 1023.4
20260508211058 78 226 3.0 9.0 0.00 0.00 0.00 10 1023.6
20260508210558 78 61 2.0 9.0 0.00 0.00 0.00 12 1023.7
20260508210058 78 292 2.0 11.0 0.00 0.00 0.00 10 1023.6
20260508205559 78 169 3.0 11.0 0.00 0.00 0.00 9 1023.7
20260508205058 78 284 3.0 8.0 0.00 0.00 0.00 10 1023.8
20260508204558 79 243 2.0 8.0 0.00 0.00 0.00 10 1023.8
20260508204101 79 158 1.0 8.0 0.00 0.00 0.00 10 1023.9
20260508203558 79 240 2.0 8.0 0.00 0.00 0.00 9 1023.9
20260508203100 79 207 1.0 5.0 0.00 0.00 0.00 10 1023.8